Вернуться в каталог

FENGYUN 1C DEB

АктивенSSO
NORAD 30468·DEBRIS·🇨🇳 China

Запущен May 10, 1999 с Taiyuan Satellite Launch Center

Loading…

Ближайшие Пролёты (ближайшие 24 часа)

TLE

СвежийSource: Space-Track

Эпоха: Sep 14, 2026, 04:38 UTC

1 30468U 99025AGF 26257.19332052  .00001630  00000-0  73543-3 0  9998
2 30468  98.9129 346.4750 0070349 328.7491  60.6135 14.22302476  7039

Отслеживайте FENGYUN 1C DEB в реальном времени с AllMySat

Download on the App Store